Time,TemperatureF,DewpointF,PressureIn,WindDirection,WindDirectionDegrees,WindSpeedMPH,WindSpeedGustMPH,Humidity,HourlyPrecipIn,Conditions,Clouds,dailyrainin,SolarRadiationWatts/m^2,SoftwareType,DateUTC
2013-04-16 00:04:00,44.1,33.8,29.62,West,261,11.0,20.0,67,0.00,,,0.00,0.0,meteohub,2013-04-16 05:04:00,
2013-04-16 00:09:00,43.9,33.6,29.62,West,274,14.0,20.0,67,0.00,,,0.00,0.0,meteohub,2013-04-16 05:09:00,
2013-04-16 00:14:00,43.5,33.6,29.62,WNW,293,15.0,20.0,68,0.00,,,0.00,0.0,meteohub,2013-04-16 05:14:00,
2013-04-16 00:19:00,43.3,33.1,29.63,WNW,288,11.0,18.0,67,0.00,,,0.00,0.0,meteohub,2013-04-16 05:19:00,
2013-04-16 00:24:00,43.0,33.1,29.65,WNW,301,6.0,20.0,68,0.00,,,0.00,0.0,meteohub,2013-04-16 05:24:00,
2013-04-16 00:29:00,42.6,32.4,29.65,NW,306,7.0,20.0,67,0.00,,,0.00,0.0,meteohub,2013-04-16 05:29:00,
2013-04-16 00:34:00,42.3,31.6,29.65,NW,311,9.0,19.0,66,0.00,,,0.00,0.0,meteohub,2013-04-16 05:34:00,
2013-04-16 00:39:00,42.1,31.1,29.64,WNW,294,19.0,19.0,65,0.00,,,0.00,0.0,meteohub,2013-04-16 05:39:00,
2013-04-16 00:44:00,41.7,30.4,29.64,WNW,294,9.0,19.0,64,0.00,,,0.00,0.0,meteohub,2013-04-16 05:44:00,
2013-04-16 00:49:00,41.5,30.2,29.64,WNW,295,7.0,19.0,64,0.00,,,0.00,0.0,meteohub,2013-04-16 05:49:00,
2013-04-16 00:54:00,41.4,30.6,29.64,NW,314,10.0,19.0,65,0.00,,,0.00,0.0,meteohub,2013-04-16 05:54:00,
2013-04-16 00:59:00,40.8,29.1,29.64,NW,305,15.0,18.0,63,0.00,,,0.00,0.0,meteohub,2013-04-16 05:59:00,
2013-04-16 01:04:00,40.8,28.8,29.65,NW,310,12.0,18.0,62,0.00,,,0.00,0.0,meteohub,2013-04-16 06:04:00,
2013-04-16 01:09:00,40.6,28.2,29.65,WNW,296,10.0,18.0,61,0.00,,,0.00,0.0,meteohub,2013-04-16 06:09:00,
2013-04-16 01:14:00,40.5,28.0,29.67,NW,307,6.0,18.0,61,0.00,,,0.00,0.0,meteohub,2013-04-16 06:14:00,
2013-04-16 01:19:00,40.3,27.9,29.67,NW,314,9.0,18.0,61,0.00,,,0.00,0.0,meteohub,2013-04-16 06:19:00,
2013-04-16 01:24:00,40.1,27.7,29.67,NW,307,8.0,16.0,61,0.00,,,0.00,0.0,meteohub,2013-04-16 06:24:00,
2013-04-16 01:29:00,39.9,27.5,29.67,NW,322,4.0,15.0,61,0.00,,,0.00,0.0,meteohub,2013-04-16 06:29:00,
2013-04-16 01:35:00,39.7,27.3,29.68,NW,318,1.0,14.0,61,0.00,,,0.00,0.0,meteohub,2013-04-16 06:35:00,
2013-04-16 01:40:00,39.7,27.3,29.68,NW,314,8.0,14.0,61,0.00,,,0.00,0.0,meteohub,2013-04-16 06:40:00,
2013-04-16 01:45:00,39.7,27.9,29.69,NNW,328,16.0,16.0,62,0.00,,,0.00,0.0,meteohub,2013-04-16 06:45:00,
2013-04-16 01:50:00,39.9,28.0,29.70,NNW,336,10.0,15.0,62,0.00,,,0.00,0.0,meteohub,2013-04-16 06:50:00,
2013-04-16 01:55:00,40.3,27.9,29.71,NNW,344,6.0,16.0,61,0.00,,,0.00,0.0,meteohub,2013-04-16 06:55:00,
2013-04-16 02:00:00,40.5,28.0,29.71,NNW,340,14.0,16.0,61,0.00,,,0.00,0.0,meteohub,2013-04-16 07:00:00,
2013-04-16 02:05:00,40.6,28.2,29.71,NNW,327,13.0,16.0,61,0.00,,,0.00,0.0,meteohub,2013-04-16 07:05:00,
2013-04-16 02:10:00,40.6,27.9,29.72,North,0,10.0,16.0,60,0.00,,,0.00,0.0,meteohub,2013-04-16 07:10:00,
2013-04-16 02:15:00,40.8,28.0,29.72,NNW,336,15.0,17.0,60,0.00,,,0.00,0.0,meteohub,2013-04-16 07:15:00,
2013-04-16 02:20:00,40.8,28.0,29.72,NNW,338,9.0,19.0,60,0.00,,,0.00,0.0,meteohub,2013-04-16 07:20:00,
2013-04-16 02:25:00,40.8,28.0,29.72,NNW,343,17.0,19.0,60,0.00,,,0.00,0.0,meteohub,2013-04-16 07:25:00,
2013-04-16 02:30:00,41.0,28.2,29.72,NNW,339,19.0,20.0,60,0.00,,,0.00,0.0,meteohub,2013-04-16 07:30:00,
2013-04-16 02:35:00,40.8,28.0,29.72,NNW,333,16.0,20.0,60,0.00,,,0.00,0.0,meteohub,2013-04-16 07:35:00,
2013-04-16 02:40:00,40.8,27.7,29.72,NNW,333,14.0,22.0,59,0.00,,,0.00,0.0,meteohub,2013-04-16 07:40:00,
2013-04-16 02:45:00,40.8,28.0,29.72,NNW,346,14.0,22.0,60,0.00,,,0.00,0.0,meteohub,2013-04-16 07:45:00,
2013-04-16 02:50:00,40.6,27.9,29.72,NNW,345,14.0,22.0,60,0.00,,,0.00,0.0,meteohub,2013-04-16 07:50:00,
2013-04-16 02:55:00,40.6,27.9,29.71,NNW,329,12.0,24.0,60,0.00,,,0.00,0.0,meteohub,2013-04-16 07:55:00,
2013-04-16 03:00:00,40.6,28.2,29.72,NNW,343,16.0,24.0,61,0.00,,,0.00,0.0,meteohub,2013-04-16 08:00:00,
2013-04-16 03:05:00,40.6,28.2,29.73,NNW,333,16.0,24.0,61,0.00,,,0.00,0.0,meteohub,2013-04-16 08:05:00,
2013-04-16 03:10:00,40.6,28.2,29.73,North,349,20.0,23.0,61,0.00,,,0.00,0.0,meteohub,2013-04-16 08:10:00,
2013-04-16 03:15:00,40.6,28.2,29.73,NNW,342,9.0,25.0,61,0.00,,,0.00,0.0,meteohub,2013-04-16 08:15:00,
2013-04-16 03:20:00,40.6,28.2,29.72,NNW,347,11.0,25.0,61,0.00,,,0.00,0.0,meteohub,2013-04-16 08:20:00,
2013-04-16 03:25:00,40.6,28.2,29.73,NNE,15,12.0,25.0,61,0.00,,,0.00,0.0,meteohub,2013-04-16 08:25:00,
2013-04-16 03:30:00,40.5,28.0,29.73,NNW,347,17.0,19.0,61,0.00,,,0.00,0.0,meteohub,2013-04-16 08:30:00,
2013-04-16 03:35:00,40.5,28.0,29.73,NNW,333,11.0,22.0,61,0.00,,,0.00,0.0,meteohub,2013-04-16 08:35:00,
2013-04-16 03:41:00,40.3,27.9,29.73,North,349,12.0,22.0,61,0.00,,,0.00,0.0,meteohub,2013-04-16 08:41:00,
2013-04-16 03:46:00,40.1,27.7,29.73,North,5,17.0,22.0,61,0.00,,,0.00,0.0,meteohub,2013-04-16 08:46:00,
2013-04-16 03:51:00,39.9,27.5,29.73,North,355,12.0,21.0,61,0.00,,,0.00,0.0,meteohub,2013-04-16 08:51:00,
2013-04-16 03:56:00,39.9,27.1,29.73,North,355,13.0,21.0,60,0.00,,,0.00,0.0,meteohub,2013-04-16 08:56:00,
2013-04-16 04:01:00,39.6,26.8,29.73,North,355,7.0,20.0,60,0.00,,,0.00,0.0,meteohub,2013-04-16 09:01:00,
2013-04-16 04:06:00,39.6,26.8,29.73,North,351,9.0,20.0,60,0.00,,,0.00,0.0,meteohub,2013-04-16 09:06:00,
2013-04-16 04:11:00,39.4,26.6,29.74,North,355,10.0,20.0,60,0.00,,,0.00,0.0,meteohub,2013-04-16 09:11:00,
2013-04-16 04:16:00,39.4,26.2,29.73,NNW,344,19.0,19.0,59,0.00,,,0.00,0.0,meteohub,2013-04-16 09:16:00,
2013-04-16 04:21:00,39.2,26.1,29.73,North,5,14.0,22.0,59,0.00,,,0.00,0.0,meteohub,2013-04-16 09:21:00,
2013-04-16 04:26:00,39.2,26.1,29.74,North,350,20.0,22.0,59,0.00,,,0.00,0.0,meteohub,2013-04-16 09:26:00,
2013-04-16 04:31:00,39.2,25.7,29.74,NNW,344,17.0,22.0,58,0.00,,,0.00,0.0,meteohub,2013-04-16 09:31:00,
2013-04-16 04:36:00,39.2,25.7,29.74,NNW,338,17.0,21.0,58,0.00,,,0.00,0.0,meteohub,2013-04-16 09:36:00,
2013-04-16 04:41:00,39.2,25.7,29.75,NNW,336,12.0,24.0,58,0.00,,,0.00,0.0,meteohub,2013-04-16 09:41:00,
2013-04-16 04:46:00,39.6,25.5,29.74,NNW,340,16.0,24.0,57,0.00,,,0.00,0.0,meteohub,2013-04-16 09:46:00,
2013-04-16 04:51:00,39.6,25.2,29.75,NNW,348,8.0,22.0,56,0.00,,,0.00,0.0,meteohub,2013-04-16 09:51:00,
2013-04-16 04:57:00,39.7,25.0,29.75,North,355,17.0,22.0,55,0.00,,,0.00,0.0,meteohub,2013-04-16 09:57:00,
2013-04-16 05:02:00,39.7,25.0,29.75,NNW,346,13.0,22.0,55,0.00,,,0.00,0.0,meteohub,2013-04-16 10:02:00,
2013-04-16 05:07:00,39.7,25.0,29.75,NNW,341,16.0,22.0,55,0.00,,,0.00,0.0,meteohub,2013-04-16 10:07:00,
2013-04-16 05:12:00,39.7,25.0,29.76,NNW,342,15.0,23.0,55,0.00,,,0.00,0.0,meteohub,2013-04-16 10:12:00,
2013-04-16 05:17:00,39.7,24.4,29.76,NNW,346,13.0,23.0,54,0.00,,,0.00,0.0,meteohub,2013-04-16 10:17:00,
2013-04-16 05:22:00,39.7,24.4,29.76,North,355,12.0,23.0,54,0.00,,,0.00,0.0,meteohub,2013-04-16 10:22:00,
2013-04-16 05:27:00,39.6,24.3,29.77,North,355,11.0,23.0,54,0.00,,,0.00,0.0,meteohub,2013-04-16 10:27:00,
2013-04-16 05:32:00,39.2,24.4,29.77,NNW,347,17.0,19.0,55,0.00,,,0.00,0.0,meteohub,2013-04-16 10:32:00,
2013-04-16 05:37:00,39.2,24.4,29.77,North,355,14.0,20.0,55,0.00,,,0.00,0.0,meteohub,2013-04-16 10:37:00,
2013-04-16 05:42:00,39.0,24.6,29.77,North,5,13.0,20.0,56,0.00,,,0.00,0.0,meteohub,2013-04-16 10:42:00,
2013-04-16 05:47:00,38.8,25.0,29.77,North,350,16.0,20.0,57,0.00,,,0.00,0.0,meteohub,2013-04-16 10:47:00,
2013-04-16 05:52:00,38.7,24.8,29.78,North,0,6.0,20.0,57,0.00,,,0.00,0.0,meteohub,2013-04-16 10:52:00,
2013-04-16 05:57:00,38.5,25.0,29.77,North,11,18.0,19.0,58,0.00,,,0.00,0.0,meteohub,2013-04-16 10:57:00,
2013-04-16 06:02:00,38.5,25.0,29.78,North,355,14.0,23.0,58,0.00,,,0.00,0.0,meteohub,2013-04-16 11:02:00,
2013-04-16 06:07:00,38.3,25.2,29.78,NNW,342,14.0,23.0,59,0.00,,,0.00,0.0,meteohub,2013-04-16 11:07:00,
2013-04-16 06:12:00,38.3,25.2,29.78,NNW,346,18.0,23.0,59,0.00,,,0.00,0.0,meteohub,2013-04-16 11:12:00,
2013-04-16 06:17:00,38.1,25.0,29.78,NNW,344,16.0,22.0,59,0.00,,,0.00,0.0,meteohub,2013-04-16 11:17:00,
2013-04-16 06:22:00,38.1,25.5,29.79,NNW,348,12.0,22.0,60,0.00,,,0.00,0.0,meteohub,2013-04-16 11:22:00,
2013-04-16 06:27:00,37.9,25.3,29.79,NNW,342,20.0,22.0,60,0.00,,,0.00,0.0,meteohub,2013-04-16 11:27:00,
2013-04-16 06:32:00,37.9,25.7,29.80,NNW,348,16.0,23.0,61,0.00,,,0.00,0.0,meteohub,2013-04-16 11:32:00,
2013-04-16 06:37:00,37.9,25.7,29.80,North,355,9.0,23.0,61,0.00,,,0.00,0.0,meteohub,2013-04-16 11:37:00,
2013-04-16 06:42:00,37.9,26.1,29.80,NNW,348,14.0,23.0,62,0.00,,,0.00,0.0,meteohub,2013-04-16 11:42:00,
2013-04-16 06:47:00,37.8,26.2,29.81,NNW,341,16.0,22.0,63,0.00,,,0.00,0.0,meteohub,2013-04-16 11:47:00,
2013-04-16 06:52:00,37.8,26.2,29.80,NNW,346,15.0,20.0,63,0.00,,,0.00,0.0,meteohub,2013-04-16 11:52:00,
2013-04-16 06:57:00,37.8,26.6,29.80,NNW,335,10.0,20.0,64,0.00,,,0.00,0.0,meteohub,2013-04-16 11:57:00,
2013-04-16 07:02:00,37.8,26.6,29.81,North,0,5.0,20.0,64,0.00,,,0.00,0.0,meteohub,2013-04-16 12:02:00,
2013-04-16 07:07:00,37.8,26.2,29.81,NNW,338,17.0,20.0,63,0.00,,,0.00,0.0,meteohub,2013-04-16 12:07:00,
2013-04-16 07:12:00,37.8,26.2,29.81,NNW,333,19.0,20.0,63,0.00,,,0.00,0.0,meteohub,2013-04-16 12:12:00,
2013-04-16 07:17:00,37.8,26.6,29.81,NNW,340,11.0,20.0,64,0.00,,,0.00,0.0,meteohub,2013-04-16 12:17:00,
2013-04-16 07:22:00,37.9,26.4,29.82,NNW,348,5.0,20.0,63,0.00,,,0.00,0.0,meteohub,2013-04-16 12:22:00,
2013-04-16 07:27:00,37.9,26.4,29.81,NNW,335,16.0,20.0,63,0.00,,,0.00,5.0,meteohub,2013-04-16 12:27:00,
2013-04-16 07:32:00,37.8,26.6,29.82,NNW,341,13.0,19.0,64,0.00,,,0.00,9.0,meteohub,2013-04-16 12:32:00,
2013-04-16 07:37:00,37.8,26.6,29.82,NNW,347,9.0,18.0,64,0.00,,,0.00,11.0,meteohub,2013-04-16 12:37:00,
2013-04-16 07:42:00,37.8,26.6,29.83,NNW,346,9.0,18.0,64,0.00,,,0.00,12.0,meteohub,2013-04-16 12:42:00,
2013-04-16 07:47:00,37.8,26.6,29.83,NNW,340,13.0,16.0,64,0.00,,,0.00,18.0,meteohub,2013-04-16 12:47:00,
2013-04-16 07:52:00,37.9,27.1,29.83,North,349,5.0,17.0,65,0.00,,,0.00,21.0,meteohub,2013-04-16 12:52:00,
2013-04-16 07:57:00,37.9,27.1,29.83,NNW,333,17.0,17.0,65,0.00,,,0.00,28.0,meteohub,2013-04-16 12:57:00,
2013-04-16 08:02:00,37.9,27.1,29.83,NNW,338,12.0,20.0,65,0.00,,,0.00,33.0,meteohub,2013-04-16 13:02:00,
2013-04-16 08:07:00,37.9,27.1,29.84,NNW,333,7.0,20.0,65,0.00,,,0.00,40.0,meteohub,2013-04-16 13:07:00,
2013-04-16 08:12:00,37.9,27.1,29.83,NNW,329,12.0,20.0,65,0.00,,,0.00,47.0,meteohub,2013-04-16 13:12:00,
2013-04-16 08:17:00,38.1,27.3,29.83,NW,322,6.0,17.0,65,0.00,,,0.00,54.0,meteohub,2013-04-16 13:17:00,
2013-04-16 08:22:00,38.3,27.1,29.84,NNW,328,11.0,17.0,64,0.00,,,0.00,62.0,meteohub,2013-04-16 13:22:00,
2013-04-16 08:27:00,38.5,27.3,29.84,NNW,331,3.0,17.0,64,0.00,,,0.00,63.0,meteohub,2013-04-16 13:27:00,
2013-04-16 08:32:00,38.5,27.0,29.85,NNW,334,13.0,19.0,63,0.00,,,0.00,63.0,meteohub,2013-04-16 13:32:00,
2013-04-16 08:37:00,38.5,26.6,29.86,North,355,10.0,19.0,62,0.00,,,0.00,63.0,meteohub,2013-04-16 13:37:00,
2013-04-16 08:42:00,38.7,26.8,29.86,NW,308,6.0,18.0,62,0.00,,,0.00,69.0,meteohub,2013-04-16 13:42:00,
2013-04-16 08:47:00,38.7,26.8,29.86,North,350,11.0,18.0,62,0.00,,,0.00,77.0,meteohub,2013-04-16 13:47:00,
2013-04-16 08:52:00,38.7,26.8,29.86,NW,319,9.0,16.0,62,0.00,,,0.00,84.0,meteohub,2013-04-16 13:52:00,
2013-04-16 08:57:00,38.8,27.0,29.86,NW,326,8.0,16.0,62,0.00,,,0.00,95.0,meteohub,2013-04-16 13:57:00,
2013-04-16 09:02:00,38.8,27.0,29.87,NNW,330,11.0,16.0,62,0.00,,,0.00,109.0,meteohub,2013-04-16 14:02:00,
2013-04-16 09:07:00,38.8,27.0,29.87,NW,314,7.0,15.0,62,0.00,,,0.00,120.0,meteohub,2013-04-16 14:07:00,
2013-04-16 09:12:00,39.0,26.8,29.86,NNW,348,12.0,15.0,61,0.00,,,0.00,137.0,meteohub,2013-04-16 14:12:00,
2013-04-16 09:17:00,39.2,27.0,29.86,NW,320,6.0,15.0,61,0.00,,,0.00,146.0,meteohub,2013-04-16 14:17:00,
2013-04-16 09:22:00,39.2,27.0,29.86,NNW,337,11.0,14.0,61,0.00,,,0.00,151.0,meteohub,2013-04-16 14:22:00,
2013-04-16 09:27:00,39.4,27.1,29.86,NNW,329,9.0,15.0,61,0.00,,,0.00,186.0,meteohub,2013-04-16 14:27:00,
2013-04-16 09:32:00,39.6,27.7,29.86,NNW,331,6.0,16.0,62,0.00,,,0.00,207.0,meteohub,2013-04-16 14:32:00,
2013-04-16 09:37:00,39.6,27.1,29.86,NNW,338,6.0,16.0,61,0.00,,,0.00,239.0,meteohub,2013-04-16 14:37:00,
2013-04-16 09:42:00,39.6,27.7,29.86,NW,307,0.0,16.0,62,0.00,,,0.00,220.0,meteohub,2013-04-16 14:42:00,
2013-04-16 09:47:00,39.7,27.3,29.86,NW,320,3.0,13.0,61,0.00,,,0.00,248.0,meteohub,2013-04-16 14:47:00,
2013-04-16 09:52:00,39.9,27.5,29.86,NNW,331,8.0,13.0,61,0.00,,,0.00,232.0,meteohub,2013-04-16 14:52:00,
2013-04-16 09:57:00,39.9,27.5,29.86,NNW,342,5.0,14.0,61,0.00,,,0.00,251.0,meteohub,2013-04-16 14:57:00,
2013-04-16 10:02:00,39.9,27.5,29.86,NNW,329,10.0,16.0,61,0.00,,,0.00,294.0,meteohub,2013-04-16 15:02:00,
2013-04-16 10:07:00,39.9,27.5,29.86,NNW,336,6.0,16.0,61,0.00,,,0.00,309.0,meteohub,2013-04-16 15:07:00,
2013-04-16 10:12:00,40.5,27.7,29.86,NW,315,6.0,15.0,60,0.00,,,0.00,357.0,meteohub,2013-04-16 15:12:00,
2013-04-16 10:17:00,40.6,27.9,29.86,North,349,8.0,17.0,60,0.00,,,0.00,332.0,meteohub,2013-04-16 15:17:00,
2013-04-16 10:22:00,41.2,27.9,29.86,NW,325,5.0,17.0,59,0.00,,,0.00,376.0,meteohub,2013-04-16 15:22:00,
2013-04-16 10:27:00,41.4,28.0,29.86,NNW,332,6.0,17.0,59,0.00,,,0.00,325.0,meteohub,2013-04-16 15:27:00,
2013-04-16 10:32:00,41.5,28.2,29.86,North,355,8.0,15.0,59,0.00,,,0.00,339.0,meteohub,2013-04-16 15:32:00,
2013-04-16 10:37:00,41.5,27.9,29.86,NW,320,8.0,15.0,58,0.00,,,0.00,362.0,meteohub,2013-04-16 15:37:00,
2013-04-16 10:42:00,41.4,28.0,29.86,NW,307,5.0,15.0,59,0.00,,,0.00,357.0,meteohub,2013-04-16 15:42:00,
2013-04-16 10:47:00,41.5,27.9,29.86,NNW,335,3.0,14.0,58,0.00,,,0.00,378.0,meteohub,2013-04-16 15:47:00,
2013-04-16 10:52:00,42.4,28.8,29.86,NNW,336,12.0,14.0,58,0.00,,,0.00,388.0,meteohub,2013-04-16 15:52:00,
2013-04-16 10:57:00,42.3,28.0,29.86,NW,313,8.0,15.0,57,0.00,,,0.00,390.0,meteohub,2013-04-16 15:57:00,
2013-04-16 11:02:00,42.1,28.4,29.87,NW,323,7.0,15.0,58,0.00,,,0.00,394.0,meteohub,2013-04-16 16:02:00,
2013-04-16 11:07:00,42.4,28.2,29.86,NW,306,0.0,15.0,57,0.00,,,0.00,431.0,meteohub,2013-04-16 16:07:00,
2013-04-16 11:12:00,43.2,28.6,29.86,NNW,337,14.0,14.0,56,0.00,,,0.00,466.0,meteohub,2013-04-16 16:12:00,
2013-04-16 11:17:00,43.0,28.8,29.87,North,5,1.0,15.0,57,0.00,,,0.00,431.0,meteohub,2013-04-16 16:17:00,
2013-04-16 11:22:00,43.3,29.1,29.86,NW,321,8.0,15.0,57,0.00,,,0.00,476.0,meteohub,2013-04-16 16:22:00,
2013-04-16 11:27:00,43.5,28.9,29.87,NW,317,2.0,16.0,56,0.00,,,0.00,473.0,meteohub,2013-04-16 16:27:00,
2013-04-16 11:32:00,43.5,29.3,29.86,NW,311,1.0,16.0,57,0.00,,,0.00,462.0,meteohub,2013-04-16 16:32:00,
2013-04-16 11:37:00,43.5,29.3,29.86,NW,306,4.0,16.0,57,0.00,,,0.00,492.0,meteohub,2013-04-16 16:37:00,
2013-04-16 11:42:00,43.3,29.1,29.86,NW,316,8.0,17.0,57,0.00,,,0.00,548.0,meteohub,2013-04-16 16:42:00,
2013-04-16 11:47:00,43.7,29.5,29.86,NW,315,0.0,17.0,57,0.00,,,0.00,538.0,meteohub,2013-04-16 16:47:00,
2013-04-16 11:52:00,43.9,29.1,29.86,NW,318,8.0,14.0,56,0.00,,,0.00,538.0,meteohub,2013-04-16 16:52:00,
2013-04-16 11:57:00,44.1,29.3,29.86,NNW,340,9.0,19.0,56,0.00,,,0.00,598.0,meteohub,2013-04-16 16:57:00,
2013-04-16 12:03:00,44.8,30.6,29.85,NNW,329,9.0,19.0,57,0.00,,,0.00,773.0,meteohub,2013-04-16 17:03:00,
2013-04-16 12:08:00,45.1,30.0,29.85,West,270,4.0,15.0,55,0.00,,,0.00,775.0,meteohub,2013-04-16 17:08:00,
2013-04-16 12:13:00,45.5,30.2,29.85,NW,323,4.0,15.0,55,0.00,,,0.00,659.0,meteohub,2013-04-16 17:13:00,
2013-04-16 12:18:00,45.7,30.4,29.84,SW,219,2.0,15.0,55,0.00,,,0.00,701.0,meteohub,2013-04-16 17:18:00,
2013-04-16 12:23:00,45.7,30.9,29.84,NNW,339,3.0,15.0,56,0.00,,,0.00,798.0,meteohub,2013-04-16 17:23:00,
2013-04-16 12:28:00,46.0,30.7,29.84,NW,313,6.0,13.0,55,0.00,,,0.00,754.0,meteohub,2013-04-16 17:28:00,
2013-04-16 12:33:00,46.2,30.9,29.84,NNW,329,12.0,12.0,55,0.00,,,0.00,719.0,meteohub,2013-04-16 17:33:00,
2013-04-16 12:38:00,46.2,30.9,29.84,North,350,2.0,15.0,55,0.00,,,0.00,712.0,meteohub,2013-04-16 17:38:00,
2013-04-16 12:43:00,46.6,31.6,29.83,NW,313,6.0,15.0,56,0.00,,,0.00,780.0,meteohub,2013-04-16 17:43:00,
2013-04-16 12:48:00,46.8,31.5,29.83,NW,315,6.0,15.0,55,0.00,,,0.00,677.0,meteohub,2013-04-16 17:48:00,
2013-04-16 12:53:00,46.6,31.3,29.83,West,279,1.0,12.0,55,0.00,,,0.00,798.0,meteohub,2013-04-16 17:53:00,
2013-04-16 12:58:00,46.9,31.6,29.83,SSW,211,4.0,11.0,55,0.00,,,0.00,659.0,meteohub,2013-04-16 17:58:00,
2013-04-16 13:03:00,47.7,31.8,29.81,NW,319,2.0,10.0,54,0.00,,,0.00,919.0,meteohub,2013-04-16 18:03:00,
2013-04-16 13:08:00,47.7,31.3,29.81,NNW,329,16.0,16.0,53,0.00,,,0.00,877.0,meteohub,2013-04-16 18:08:00,
2013-04-16 13:13:00,48.2,31.8,29.81,NW,319,3.0,16.0,53,0.00,,,0.00,882.0,meteohub,2013-04-16 18:13:00,
2013-04-16 13:18:00,48.4,32.0,29.81,West,269,4.0,16.0,53,0.00,,,0.00,970.0,meteohub,2013-04-16 18:18:00,
2013-04-16 13:23:00,48.6,32.2,29.81,WNW,282,1.0,16.0,53,0.00,,,0.00,1009.0,meteohub,2013-04-16 18:23:00,
2013-04-16 13:29:00,49.1,32.2,29.80,North,350,1.0,14.0,52,0.00,,,0.00,965.0,meteohub,2013-04-16 18:29:00,
2013-04-16 13:34:00,49.5,32.5,29.80,NW,314,5.0,13.0,52,0.00,,,0.00,963.0,meteohub,2013-04-16 18:34:00,
2013-04-16 13:39:00,49.5,33.1,29.80,West,273,5.0,18.0,53,0.00,,,0.00,967.0,meteohub,2013-04-16 18:39:00,
2013-04-16 13:44:00,49.8,32.9,29.79,WNW,297,3.0,18.0,52,0.00,,,0.00,963.0,meteohub,2013-04-16 18:44:00,
2013-04-16 13:49:00,49.6,32.7,29.78,NW,324,5.0,18.0,52,0.00,,,0.00,969.0,meteohub,2013-04-16 18:49:00,
2013-04-16 13:54:00,50.4,33.4,29.78,SW,226,1.0,16.0,52,0.00,,,0.00,963.0,meteohub,2013-04-16 18:54:00,
2013-04-16 13:59:00,50.5,33.6,29.78,NW,319,7.0,16.0,52,0.00,,,0.00,963.0,meteohub,2013-04-16 18:59:00,
2013-04-16 14:04:00,50.7,33.8,29.78,NW,311,8.0,16.0,52,0.00,,,0.00,960.0,meteohub,2013-04-16 19:04:00,
2013-04-16 14:09:00,50.9,33.4,29.78,NNW,335,4.0,15.0,51,0.00,,,0.00,960.0,meteohub,2013-04-16 19:09:00,
2013-04-16 14:14:00,50.5,33.1,29.79,WNW,298,2.0,15.0,51,0.00,,,0.00,958.0,meteohub,2013-04-16 19:14:00,
2013-04-16 14:19:00,50.4,33.4,29.78,WNW,298,0.0,13.0,52,0.00,,,0.00,954.0,meteohub,2013-04-16 19:19:00,
2013-04-16 14:25:00,50.7,33.8,29.78,WNW,288,3.0,8.0,52,0.00,,,0.00,953.0,meteohub,2013-04-16 19:25:00,
2013-04-16 14:30:00,51.4,34.9,29.78,WSW,251,5.0,14.0,53,0.00,,,0.00,947.0,meteohub,2013-04-16 19:30:00,
2013-04-16 14:35:00,51.6,34.2,29.78,WNW,289,6.0,14.0,51,0.00,,,0.00,958.0,meteohub,2013-04-16 19:35:00,
2013-04-16 14:40:00,51.6,34.2,29.78,West,261,5.0,14.0,51,0.00,,,0.00,946.0,meteohub,2013-04-16 19:40:00,
2013-04-16 14:45:00,52.0,34.9,29.78,SW,232,1.0,10.0,52,0.00,,,0.00,937.0,meteohub,2013-04-16 19:45:00,
2013-04-16 14:50:00,52.3,34.2,29.78,NW,311,3.0,11.0,50,0.00,,,0.00,935.0,meteohub,2013-04-16 19:50:00,
2013-04-16 14:55:00,52.5,34.3,29.78,WSW,253,3.0,11.0,50,0.00,,,0.00,930.0,meteohub,2013-04-16 19:55:00,
2013-04-16 15:00:00,52.7,34.2,29.77,NW,306,0.0,10.0,49,0.00,,,0.00,926.0,meteohub,2013-04-16 20:00:00,
2013-04-16 15:05:00,52.5,34.3,29.77,West,271,0.0,10.0,50,0.00,,,0.00,918.0,meteohub,2013-04-16 20:05:00,
2013-04-16 15:10:00,52.5,34.3,29.76,WNW,301,0.0,14.0,50,0.00,,,0.00,905.0,meteohub,2013-04-16 20:10:00,
2013-04-16 15:15:00,53.2,35.1,29.76,WNW,290,3.0,14.0,50,0.00,,,0.00,902.0,meteohub,2013-04-16 20:15:00,
2013-04-16 15:20:00,53.2,34.5,29.75,SW,216,0.0,14.0,49,0.00,,,0.00,895.0,meteohub,2013-04-16 20:20:00,
2013-04-16 15:25:00,54.1,34.9,29.76,West,261,0.0,16.0,48,0.00,,,0.00,888.0,meteohub,2013-04-16 20:25:00,
2013-04-16 15:30:00,53.4,35.2,29.75,NW,309,0.0,16.0,50,0.00,,,0.00,881.0,meteohub,2013-04-16 20:30:00,
2013-04-16 15:35:00,54.3,35.1,29.75,NW,312,6.0,14.0,48,0.00,,,0.00,867.0,meteohub,2013-04-16 20:35:00,
2013-04-16 15:40:00,54.3,35.1,29.75,NW,306,3.0,13.0,48,0.00,,,0.00,867.0,meteohub,2013-04-16 20:40:00,
2013-04-16 15:45:00,54.7,35.4,29.75,SW,215,7.0,13.0,48,0.00,,,0.00,861.0,meteohub,2013-04-16 20:45:00,
2013-04-16 15:50:00,54.9,35.6,29.75,NW,314,9.0,12.0,48,0.00,,,0.00,856.0,meteohub,2013-04-16 20:50:00,
2013-04-16 15:55:00,54.9,35.1,29.75,NW,315,3.0,12.0,47,0.00,,,0.00,828.0,meteohub,2013-04-16 20:55:00,
2013-04-16 16:01:00,54.9,35.6,29.75,WSW,239,2.0,12.0,48,0.00,,,0.00,728.0,meteohub,2013-04-16 21:01:00,
2013-04-16 16:06:00,55.4,36.0,29.74,WNW,285,3.0,12.0,48,0.00,,,0.00,798.0,meteohub,2013-04-16 21:06:00,
2013-04-16 16:11:00,55.0,35.8,29.74,WNW,288,0.0,11.0,48,0.00,,,0.00,772.0,meteohub,2013-04-16 21:11:00,
2013-04-16 16:16:00,55.6,35.6,29.73,SW,227,10.0,11.0,47,0.00,,,0.00,761.0,meteohub,2013-04-16 21:16:00,
2013-04-16 16:21:00,55.8,36.3,29.73,SW,227,1.0,12.0,48,0.00,,,0.00,763.0,meteohub,2013-04-16 21:21:00,
2013-04-16 16:26:00,55.9,36.0,29.73,West,277,5.0,12.0,47,0.00,,,0.00,687.0,meteohub,2013-04-16 21:26:00,
2013-04-16 16:31:00,55.8,36.3,29.72,NW,308,0.0,12.0,48,0.00,,,0.00,680.0,meteohub,2013-04-16 21:31:00,
2013-04-16 16:36:00,56.7,36.1,29.72,WNW,285,6.0,12.0,46,0.00,,,0.00,749.0,meteohub,2013-04-16 21:36:00,
2013-04-16 16:41:00,56.8,36.3,29.71,WSW,239,1.0,12.0,46,0.00,,,0.00,693.0,meteohub,2013-04-16 21:41:00,
2013-04-16 16:47:00,56.7,36.1,29.71,West,267,1.0,12.0,46,0.00,,,0.00,638.0,meteohub,2013-04-16 21:47:00,
2013-04-16 16:52:00,56.8,36.3,29.71,SSW,207,2.0,11.0,46,0.00,,,0.00,566.0,meteohub,2013-04-16 21:52:00,
2013-04-16 16:57:00,56.8,36.3,29.70,West,266,4.0,11.0,46,0.00,,,0.00,533.0,meteohub,2013-04-16 21:57:00,
2013-04-16 17:02:00,56.8,36.9,29.70,WSW,250,2.0,11.0,47,0.00,,,0.00,485.0,meteohub,2013-04-16 22:02:00,
2013-04-16 17:07:00,57.4,36.7,29.70,SW,214,7.0,11.0,46,0.00,,,0.00,547.0,meteohub,2013-04-16 22:07:00,
2013-04-16 17:12:00,56.8,36.9,29.70,SW,220,11.0,19.0,47,0.00,,,0.00,466.0,meteohub,2013-04-16 22:12:00,
2013-04-16 17:17:00,56.8,36.9,29.69,WNW,294,0.0,19.0,47,0.00,,,0.00,404.0,meteohub,2013-04-16 22:17:00,
2013-04-16 17:22:00,56.7,36.7,29.70,West,259,3.0,19.0,47,0.00,,,0.00,417.0,meteohub,2013-04-16 22:22:00,
2013-04-16 17:27:00,56.7,37.2,29.69,SW,233,4.0,15.0,48,0.00,,,0.00,403.0,meteohub,2013-04-16 22:27:00,
2013-04-16 17:32:00,56.1,36.7,29.70,South,184,4.0,16.0,48,0.00,,,0.00,353.0,meteohub,2013-04-16 22:32:00,
2013-04-16 17:37:00,55.9,37.0,29.69,NW,318,0.0,16.0,49,0.00,,,0.00,512.0,meteohub,2013-04-16 22:37:00,
2013-04-16 17:42:00,56.5,37.6,29.70,SW,218,5.0,16.0,49,0.00,,,0.00,396.0,meteohub,2013-04-16 22:42:00,
2013-04-16 17:47:00,56.3,37.4,29.70,West,261,3.0,17.0,49,0.00,,,0.00,350.0,meteohub,2013-04-16 22:47:00,
2013-04-16 17:52:00,56.1,37.2,29.70,WNW,286,2.0,17.0,49,0.00,,,0.00,329.0,meteohub,2013-04-16 22:52:00,
2013-04-16 17:57:00,55.8,37.4,29.70,West,273,5.0,17.0,50,0.00,,,0.00,294.0,meteohub,2013-04-16 22:57:00,
2013-04-16 18:02:00,55.9,37.6,29.70,WSW,248,5.0,13.0,50,0.00,,,0.00,352.0,meteohub,2013-04-16 23:02:00,
2013-04-16 18:07:00,56.3,37.9,29.70,SW,232,12.0,12.0,50,0.00,,,0.00,295.0,meteohub,2013-04-16 23:07:00,
2013-04-16 18:12:00,56.3,37.9,29.70,SW,232,7.0,12.0,50,0.00,,,0.00,462.0,meteohub,2013-04-16 23:12:00,
2013-04-16 18:17:00,56.3,37.9,29.70,SSW,200,2.0,14.0,50,0.00,,,0.00,454.0,meteohub,2013-04-16 23:17:00,
2013-04-16 18:22:00,56.1,37.8,29.70,SW,232,11.0,14.0,50,0.00,,,0.00,339.0,meteohub,2013-04-16 23:22:00,
2013-04-16 18:27:00,55.8,37.9,29.70,SW,233,11.0,14.0,51,0.00,,,0.00,223.0,meteohub,2013-04-16 23:27:00,
2013-04-16 18:32:00,55.8,37.9,29.70,SW,214,8.0,17.0,51,0.00,,,0.00,250.0,meteohub,2013-04-16 23:32:00,
2013-04-16 18:38:00,55.9,38.1,29.70,West,259,0.0,17.0,51,0.00,,,0.00,221.0,meteohub,2013-04-16 23:38:00,
2013-04-16 18:42:00,55.9,38.1,29.71,SW,215,8.0,17.0,51,0.00,,,0.00,230.0,meteohub,2013-04-16 23:42:00,
2013-04-16 18:48:00,55.8,37.9,29.71,SW,225,6.0,17.0,51,0.00,,,0.00,172.0,meteohub,2013-04-16 23:48:00,
2013-04-16 18:53:00,55.9,38.1,29.71,SW,232,2.0,15.0,51,0.00,,,0.00,246.0,meteohub,2013-04-16 23:53:00,
2013-04-16 18:58:00,56.1,38.3,29.72,WNW,301,1.0,12.0,51,0.00,,,0.00,248.0,meteohub,2013-04-16 23:58:00,
2013-04-16 19:03:00,56.1,38.7,29.71,North,350,8.0,12.0,52,0.00,,,0.00,269.0,meteohub,2013-04-17 00:03:00,
2013-04-16 19:08:00,56.1,38.7,29.70,West,263,6.0,12.0,52,0.00,,,0.00,232.0,meteohub,2013-04-17 00:08:00,
2013-04-16 19:13:00,56.1,38.7,29.71,WSW,237,3.0,14.0,52,0.00,,,0.00,265.0,meteohub,2013-04-17 00:13:00,
2013-04-16 19:18:00,56.5,38.7,29.71,WSW,253,3.0,14.0,51,0.00,,,0.00,156.0,meteohub,2013-04-17 00:18:00,
2013-04-16 19:23:00,55.9,38.1,29.70,WSW,238,11.0,14.0,51,0.00,,,0.00,102.0,meteohub,2013-04-17 00:23:00,
2013-04-16 19:28:00,55.4,38.5,29.70,WSW,250,5.0,14.0,53,0.00,,,0.00,93.0,meteohub,2013-04-17 00:28:00,
2013-04-16 19:33:00,55.2,38.3,29.70,West,261,3.0,14.0,53,0.00,,,0.00,83.0,meteohub,2013-04-17 00:33:00,
2013-04-16 19:38:00,55.2,38.3,29.71,West,261,4.0,14.0,53,0.00,,,0.00,81.0,meteohub,2013-04-17 00:38:00,
2013-04-16 19:43:00,55.0,38.3,29.71,South,176,6.0,14.0,53,0.00,,,0.00,69.0,meteohub,2013-04-17 00:43:00,
2013-04-16 19:48:00,54.9,38.5,29.71,SW,218,0.0,14.0,54,0.00,,,0.00,95.0,meteohub,2013-04-17 00:48:00,
2013-04-16 19:53:00,54.9,38.5,29.71,WSW,253,13.0,13.0,54,0.00,,,0.00,72.0,meteohub,2013-04-17 00:53:00,
2013-04-16 19:58:00,54.3,37.9,29.71,West,275,3.0,15.0,54,0.00,,,0.00,44.0,meteohub,2013-04-17 00:58:00,
2013-04-16 20:03:00,53.8,37.9,29.71,WSW,250,4.0,15.0,55,0.00,,,0.00,25.0,meteohub,2013-04-17 01:03:00,
2013-04-16 20:09:00,53.4,38.1,29.72,West,265,0.0,15.0,56,0.00,,,0.00,16.0,meteohub,2013-04-17 01:09:00,
2013-04-16 20:14:00,53.1,38.3,29.72,West,262,3.0,11.0,57,0.00,,,0.00,9.0,meteohub,2013-04-17 01:14:00,
2013-04-16 20:19:00,52.7,37.9,29.72,West,263,1.0,11.0,57,0.00,,,0.00,5.0,meteohub,2013-04-17 01:19:00,
2013-04-16 20:24:00,51.6,37.4,29.72,WNW,287,1.0,8.0,58,0.00,,,0.00,0.0,meteohub,2013-04-17 01:24:00,
2013-04-16 20:29:00,50.5,37.2,29.72,WNW,286,3.0,9.0,60,0.00,,,0.00,0.0,meteohub,2013-04-17 01:29:00,
2013-04-16 20:34:00,49.6,37.2,29.72,West,276,2.0,9.0,62,0.00,,,0.00,0.0,meteohub,2013-04-17 01:34:00,
2013-04-16 20:39:00,49.3,37.2,29.72,WNW,282,5.0,9.0,63,0.00,,,0.00,0.0,meteohub,2013-04-17 01:39:00,
2013-04-16 20:44:00,48.7,36.7,29.72,WNW,292,3.0,10.0,63,0.00,,,0.00,0.0,meteohub,2013-04-17 01:44:00,
2013-04-16 20:49:00,48.6,37.4,29.71,West,271,5.0,10.0,65,0.00,,,0.00,0.0,meteohub,2013-04-17 01:49:00,
2013-04-16 20:54:00,48.2,37.0,29.71,West,263,2.0,10.0,65,0.00,,,0.00,0.0,meteohub,2013-04-17 01:54:00,
2013-04-16 20:59:00,47.7,36.9,29.71,West,271,7.0,10.0,66,0.00,,,0.00,0.0,meteohub,2013-04-17 01:59:00,
2013-04-16 21:04:00,47.1,36.7,29.72,WNW,292,6.0,12.0,67,0.00,,,0.00,0.0,meteohub,2013-04-17 02:04:00,
2013-04-16 21:09:00,46.8,36.7,29.72,West,279,5.0,12.0,68,0.00,,,0.00,0.0,meteohub,2013-04-17 02:09:00,
2013-04-16 21:14:00,46.2,36.7,29.72,West,277,4.0,12.0,69,0.00,,,0.00,0.0,meteohub,2013-04-17 02:14:00,
2013-04-16 21:19:00,45.7,36.5,29.72,WNW,290,6.0,9.0,70,0.00,,,0.00,0.0,meteohub,2013-04-17 02:19:00,
2013-04-16 21:25:00,45.3,36.5,29.73,WNW,283,5.0,11.0,71,0.00,,,0.00,0.0,meteohub,2013-04-17 02:25:00,
2013-04-16 21:29:00,45.0,36.5,29.74,West,269,1.0,11.0,72,0.00,,,0.00,0.0,meteohub,2013-04-17 02:29:00,
2013-04-16 21:35:00,44.6,36.5,29.74,West,259,3.0,11.0,73,0.00,,,0.00,0.0,meteohub,2013-04-17 02:35:00,
2013-04-16 21:40:00,44.4,36.7,29.73,WSW,255,6.0,13.0,74,0.00,,,0.00,0.0,meteohub,2013-04-17 02:40:00,
2013-04-16 21:45:00,44.1,36.3,29.73,West,267,9.0,13.0,74,0.00,,,0.00,0.0,meteohub,2013-04-17 02:45:00,
2013-04-16 21:50:00,43.9,36.5,29.72,West,266,1.0,13.0,75,0.00,,,0.00,0.0,meteohub,2013-04-17 02:50:00,
2013-04-16 21:55:00,43.5,36.5,29.73,West,267,5.0,13.0,76,0.00,,,0.00,0.0,meteohub,2013-04-17 02:55:00,
2013-04-16 22:00:00,43.3,36.3,29.73,West,271,4.0,13.0,76,0.00,,,0.00,0.0,meteohub,2013-04-17 03:00:00,
2013-04-16 22:05:00,43.2,36.5,29.73,West,278,4.0,13.0,77,0.00,,,0.00,0.0,meteohub,2013-04-17 03:05:00,
2013-04-16 22:10:00,43.0,36.7,29.73,WNW,292,6.0,13.0,78,0.00,,,0.00,0.0,meteohub,2013-04-17 03:10:00,
2013-04-16 22:15:00,42.6,36.5,29.74,WNW,300,1.0,13.0,79,0.00,,,0.00,0.0,meteohub,2013-04-17 03:15:00,
2013-04-16 22:20:00,42.6,36.5,29.74,WNW,286,4.0,13.0,79,0.00,,,0.00,0.0,meteohub,2013-04-17 03:20:00,
2013-04-16 22:25:00,42.4,36.7,29.73,WNW,296,5.0,10.0,80,0.00,,,0.00,0.0,meteohub,2013-04-17 03:25:00,
2013-04-16 22:30:00,42.3,36.5,29.73,West,273,1.0,9.0,80,0.00,,,0.00,0.0,meteohub,2013-04-17 03:30:00,
2013-04-16 22:35:00,42.3,36.9,29.74,West,267,4.0,9.0,81,0.00,,,0.00,0.0,meteohub,2013-04-17 03:35:00,
2013-04-16 22:40:00,42.3,36.9,29.74,West,265,7.0,10.0,81,0.00,,,0.00,0.0,meteohub,2013-04-17 03:40:00,
2013-04-16 22:45:00,42.3,36.9,29.74,West,273,6.0,12.0,81,0.00,,,0.00,0.0,meteohub,2013-04-17 03:45:00,
2013-04-16 22:51:00,42.1,36.7,29.73,West,279,5.0,12.0,81,0.00,,,0.00,0.0,meteohub,2013-04-17 03:51:00,
2013-04-16 22:56:00,42.1,37.0,29.73,WNW,286,0.0,12.0,82,0.00,,,0.00,0.0,meteohub,2013-04-17 03:56:00,
2013-04-16 23:00:00,42.1,37.0,29.73,West,281,2.0,12.0,82,0.00,,,0.00,0.0,meteohub,2013-04-17 04:00:00,
2013-04-16 23:02:00,42.1,37.0,29.73,West,275,3.0,10.0,82,0.00,,,0.00,0.0,meteohub,2013-04-17 04:02:00,
2013-04-16 23:07:00,42.1,37.0,29.73,WNW,284,6.0,9.0,82,0.00,,,0.00,0.0,meteohub,2013-04-17 04:07:00,
2013-04-16 23:12:00,42.3,37.2,29.74,WNW,295,6.0,9.0,82,0.00,,,0.00,0.0,meteohub,2013-04-17 04:12:00,
2013-04-16 23:17:00,42.4,37.4,29.74,WNW,300,7.0,9.0,82,0.00,,,0.00,0.0,meteohub,2013-04-17 04:17:00,
2013-04-16 23:22:00,42.4,37.4,29.73,WNW,288,5.0,10.0,82,0.00,,,0.00,0.0,meteohub,2013-04-17 04:22:00,
2013-04-16 23:27:00,42.6,37.6,29.74,WNW,290,3.0,10.0,82,0.00,,,0.00,0.0,meteohub,2013-04-17 04:27:00,
2013-04-16 23:32:00,42.6,37.6,29.73,WSW,256,2.0,10.0,82,0.00,,,0.00,0.0,meteohub,2013-04-17 04:32:00,
2013-04-16 23:37:00,42.8,37.8,29.73,West,275,2.0,9.0,82,0.00,,,0.00,0.0,meteohub,2013-04-17 04:37:00,
2013-04-16 23:42:00,42.8,37.8,29.73,West,279,0.0,10.0,82,0.00,,,0.00,0.0,meteohub,2013-04-17 04:42:00,
2013-04-16 23:47:00,43.0,37.9,29.73,NW,304,3.0,10.0,82,0.00,,,0.00,0.0,meteohub,2013-04-17 04:47:00,
2013-04-16 23:52:00,43.0,38.1,29.73,West,281,1.0,10.0,83,0.00,,,0.00,0.0,meteohub,2013-04-17 04:52:00,
2013-04-16 23:57:00,43.0,38.1,29.73,West,272,0.0,9.0,83,0.00,,,0.00,0.0,meteohub,2013-04-17 04:57:00,